Location: Navarre
(52.9016°N, 113.4144°W)
Time: 14:10:38
(UTC+00:00)

Envisat - Pass Details

Date: 05 December 2021
Orbit: 764 x 766 km, 98.2° (Epoch: 28 January)

Event Time Altitude Azimuth Distance (km) Brightness Sun altitude
Rises 01:12:17 0° 219° (SW) 3,225 7.2 -15.9°
Reaches altitude 10° 01:15:44 10° 244° (WSW) 2,305 6.8 -16.4°
Maximum altitude 01:18:23 14° 275° (W) 2,033 6.2 -16.8°
Drops below altitude 10° 01:21:03 10° 307° (NW) 2,315 6.0 -17.2°
Sets 01:24:33 0° 332° (NNW) 3,248 6.4 -17.7°
